FW0728 Boca Raton FL US current weather conditions

sailwx.info

Wind from 068 at 2 knots

Air temperature 26.7° C
Dewpoint 25.1° C

Last reported at 2020-Oct-30 23:01 UTC.
Time now 2020-Oct-30 23:19 UTC

Location: N 26°20' W 080°13'.
View on Google Maps.

See reports from other nearby stations

  
Tides and Currents Weather Stations Pressure Air Temp Water Temp Dewpoint Dewpoint Depression Visibility Wind Speed Wind Dir Waves Ship Positions
date/time (UTC)wind fromknots sea level pressurealtimeterstation pressurevisibilityair tempwater tempwave heightnotes
2020-Oct-30 23:01 068 2 26.7
2020-Oct-30 22:57 045 5 26.7
2020-Oct-30 22:51 27.2
2020-Oct-30 22:46 045 2 27.2
2020-Oct-30 22:41 135 3 27.2
2020-Oct-30 22:36 135 1 27.2
2020-Oct-30 22:31 068 2 27.2
2020-Oct-30 22:26 113 1 27.2
2020-Oct-30 22:21 113 0 27.2
2020-Oct-30 22:16 113 2 27.2
2020-Oct-30 22:11 045 2 27.8
2020-Oct-30 22:06 113 2 27.8
2020-Oct-30 22:01 045 3 27.8
2020-Oct-30 21:56 113 3 27.8
2020-Oct-30 21:51 045 3 27.8
2020-Oct-30 21:46 090 2 27.8
2020-Oct-30 21:41 315 2 27.8
2020-Oct-30 21:36 090 3 27.8
2020-Oct-30 21:31 090 6 27.8
2020-Oct-30 21:26 023 3 28.3
2020-Oct-30 21:21 113 4 28.3
2020-Oct-30 21:16 045 4 28.3
2020-Oct-30 21:11 023 4 28.9
2020-Oct-30 21:06 023 1 30.6
2020-Oct-30 21:01 023 30.6
2020-Oct-30 20:56 270 30.6
2020-Oct-30 20:51 090 30.6
2020-Oct-30 20:46 023 31.1
2020-Oct-30 20:41 158 0 31.1
2020-Oct-30 20:36 068 31.1
2020-Oct-30 20:31 068 31.7
2020-Oct-30 20:26 090 1 31.1
2020-Oct-30 20:21 113 31.1
2020-Oct-30 20:16 090 31.1
2020-Oct-30 20:11 023 31.1
2020-Oct-30 20:06 135 31.1
2020-Oct-30 20:01 158 1 31.1
2020-Oct-30 19:56 090 0 31.7
2020-Oct-30 19:51 090 32.2
2020-Oct-30 19:46 090 31.7
2020-Oct-30 19:41 045 31.1
2020-Oct-30 19:36 090 30.6
2020-Oct-30 19:31 045 30.6
2020-Oct-30 19:26 023 30.6
2020-Oct-30 19:21 113 31.1
2020-Oct-30 19:16 135 31.7
2020-Oct-30 19:11 135 31.7
2020-Oct-30 19:06 023 0 32.2
2020-Oct-30 19:01 023 33.3
2020-Oct-30 18:56 293 33.9
2020-Oct-30 18:51 135 32.8
2020-Oct-30 18:46 270 32.8
2020-Oct-30 18:41 203 32.2
2020-Oct-30 18:36 270 32.8
2020-Oct-30 18:31 270 31.7
2020-Oct-30 18:26 270 32.2
2020-Oct-30 18:21 113 31.7
2020-Oct-30 18:16 158 31.1
2020-Oct-30 18:11 293 31.7
2020-Oct-30 18:06 270 31.7
2020-Oct-30 18:01 270 1 32.2
2020-Oct-30 17:56 33.9
2020-Oct-30 17:51 270 33.9
2020-Oct-30 17:47 315 3 33.9
2020-Oct-30 17:41 068 33.9
2020-Oct-30 17:36 113 33.9
2020-Oct-30 17:31 180 33.3
2020-Oct-30 17:26 248 33.9
2020-Oct-30 17:21 180 33.3
2020-Oct-30 17:16 113 32.8
2020-Oct-30 17:13 023 32.2
2020-Oct-30 17:06 338 32.8
2020-Oct-30 17:01 315 0 32.2
2020-Oct-30 16:56 338 2 32.2
2020-Oct-30 16:51 248 33.3
2020-Oct-30 16:46 270 4 33.3
2020-Oct-30 16:41 270 33.3
2020-Oct-30 16:36 270 0 32.8
2020-Oct-30 16:31 158 32.8
2020-Oct-30 16:27 023 32.2
2020-Oct-30 16:21 270 31.7
2020-Oct-30 16:16 203 31.1
2020-Oct-30 16:11 135 31.1
2020-Oct-30 16:06 270 31.1
2020-Oct-30 16:02 293 31.1
2020-Oct-30 15:56 270 32.2
2020-Oct-30 15:51 315 32.2
2020-Oct-30 15:46 225 31.7
2020-Oct-30 15:41 180 32.2
2020-Oct-30 15:36 158 31.7
2020-Oct-30 15:31 225 31.7
2020-Oct-30 15:26 270 31.1
2020-Oct-30 15:21 270 31.7
2020-Oct-30 15:16 270 31.7
2020-Oct-30 15:11 180 31.7
2020-Oct-30 15:06 113 30.0
2020-Oct-30 15:01 180 31.1
2020-Oct-30 14:56 270 31.7
2020-Oct-30 14:51 135 31.7
2020-Oct-30 14:46 270 31.7
2020-Oct-30 14:41 31.1
2020-Oct-30 14:36 180 30.0
2020-Oct-30 14:31 068 31.1
2020-Oct-30 14:26 113 30.0
2020-Oct-30 14:21 203 30.0
2020-Oct-30 14:16 270 30.0
2020-Oct-30 14:11 248 30.6
2020-Oct-30 14:06 270 30.6
2020-Oct-30 14:01 180 30.0
2020-Oct-30 13:56 135 30.0
2020-Oct-30 13:51 225 30.0
2020-Oct-30 13:46 135 29.4
2020-Oct-30 13:41 248 28.9
2020-Oct-30 13:36 135 28.9
2020-Oct-30 13:31 180 28.9
2020-Oct-30 13:26 270 29.4
2020-Oct-30 13:21 248 28.9
2020-Oct-30 13:16 270 28.9
2020-Oct-30 13:11 248 28.9
2020-Oct-30 13:06 270 28.3
2020-Oct-30 13:01 270 28.3
2020-Oct-30 12:56 225 27.8
2020-Oct-30 12:52 270 27.2
2020-Oct-30 12:46 270 26.7
2020-Oct-30 12:42 270 26.7
2020-Oct-30 12:36 270 26.1
2020-Oct-30 12:31 270 25.6
2020-Oct-30 12:26 203 25.6
2020-Oct-30 12:21 225 25.0
2020-Oct-30 12:16 248 25.0
2020-Oct-30 12:11 203 25.0
2020-Oct-30 12:06 180 25.0
2020-Oct-30 12:01 203 24.4
2020-Oct-30 11:56 203 24.4
2020-Oct-30 11:51 270 23.9
2020-Oct-30 11:46 270 23.9
2020-Oct-30 11:41 270 23.9
2020-Oct-30 11:36 270 23.9
2020-Oct-30 11:31 270 23.9
2020-Oct-30 11:26 270 23.9
2020-Oct-30 11:21 270 23.9
2020-Oct-30 11:16 270 23.9
2020-Oct-30 11:11 270 23.9
2020-Oct-30 11:06 270 23.9
2020-Oct-30 11:01 270 23.9
2020-Oct-30 10:56 270 23.9
2020-Oct-30 10:52 270 23.9
2020-Oct-30 10:46 270 23.9
2020-Oct-30 10:41 270 23.9
2020-Oct-30 10:36 270 23.9
2020-Oct-30 10:31 270 23.9
2020-Oct-30 10:26 270 23.9
2020-Oct-30 10:21 270 23.9
2020-Oct-30 10:16 270 23.9
2020-Oct-30 10:11 270 23.9
2020-Oct-30 10:06 270 23.9
2020-Oct-30 10:01 270 23.9
2020-Oct-30 09:56 270 23.9
2020-Oct-30 09:52 270 23.9
2020-Oct-30 09:46 270 23.9
2020-Oct-30 09:41 270 23.9
2020-Oct-30 09:36 270 23.9
2020-Oct-30 09:31 270 23.9
2020-Oct-30 09:26 270 23.9
2020-Oct-30 09:21 270 23.9
2020-Oct-30 09:16 270 23.9
2020-Oct-30 09:11 270 23.9
2020-Oct-30 09:06 270 23.9
2020-Oct-30 09:01 270 24.4
2020-Oct-30 08:56 270 24.4
2020-Oct-30 08:51 270 24.4
2020-Oct-30 08:46 270 24.4
2020-Oct-30 08:41 270 24.4
2020-Oct-30 08:36 270 24.4
2020-Oct-30 08:31 270 24.4
2020-Oct-30 08:26 270 24.4
2020-Oct-30 08:21 270 24.4
2020-Oct-30 08:16 270 24.4
2020-Oct-30 08:11 270 24.4
2020-Oct-30 08:06 270 24.4
2020-Oct-30 08:01 270 24.4
2020-Oct-30 07:56 270 24.4
2020-Oct-30 07:51 270 24.4
2020-Oct-30 07:46 270 24.4
2020-Oct-30 07:41 270 25.0
2020-Oct-30 07:36 270 24.4
2020-Oct-30 07:31 270 24.4
2020-Oct-30 07:26 270 24.4
2020-Oct-30 07:21 270 24.4
2020-Oct-30 07:16 270 24.4
2020-Oct-30 07:11 270 24.4
2020-Oct-30 07:06 270 24.4
2020-Oct-30 07:01 270 24.4
2020-Oct-30 06:57 270 24.4
2020-Oct-30 06:51 270 24.4
2020-Oct-30 06:46 270 24.4
2020-Oct-30 06:41 270 24.4
2020-Oct-30 06:36 270 24.4
2020-Oct-30 06:31 270 24.4
2020-Oct-30 06:26 270 24.4
2020-Oct-30 06:21 270 24.4
2020-Oct-30 06:16 270 24.4
2020-Oct-30 06:11 270 24.4
2020-Oct-30 06:06 270 24.4
2020-Oct-30 06:01 270 25.0
2020-Oct-30 05:56 270 25.0
2020-Oct-30 05:51 270 25.0
2020-Oct-30 05:46 270 25.0
2020-Oct-30 05:41 270 25.0
2020-Oct-30 05:36 270 25.0
2020-Oct-30 05:31 270 25.0
2020-Oct-30 05:26 270 25.0
2020-Oct-30 05:21 270 25.0
2020-Oct-30 05:16 270 25.0
2020-Oct-30 05:11 270 25.0
2020-Oct-30 05:06 270 25.0
2020-Oct-30 05:01 270 25.0
2020-Oct-30 04:56 270 25.0
2020-Oct-30 04:51 180 25.0
2020-Oct-30 04:46 248 25.0
2020-Oct-30 04:41 248 25.0
2020-Oct-30 04:36 248 25.6
2020-Oct-30 04:31 248 25.6
2020-Oct-30 04:26 248 25.6
2020-Oct-30 04:21 248 25.6
2020-Oct-30 04:16 248 25.6
2020-Oct-30 04:11 248 25.6
2020-Oct-30 04:06 248 25.6
2020-Oct-30 04:01 248 25.6
2020-Oct-30 03:56 248 25.6
2020-Oct-30 03:51 248 25.6
2020-Oct-30 03:46 248 25.6
2020-Oct-30 03:41 248 25.6
2020-Oct-30 03:36 248 25.6
2020-Oct-30 03:31 270 25.6
2020-Oct-30 03:26 270 25.6
2020-Oct-30 03:21 270 25.6
2020-Oct-30 03:16 270 25.6
2020-Oct-30 03:11 270 25.6
2020-Oct-30 03:06 270 25.6
2020-Oct-30 03:01 225 25.6
2020-Oct-30 02:56 225 25.6
2020-Oct-30 02:51 225 25.6
2020-Oct-30 02:46 225 25.6
2020-Oct-30 02:41 158 25.6
2020-Oct-30 02:36 203 25.6
2020-Oct-30 02:31 180 26.1
2020-Oct-30 02:26 135 26.1
2020-Oct-30 02:21 225 26.1
2020-Oct-30 02:16 225 26.1
2020-Oct-30 02:11 225 26.1
2020-Oct-30 02:06 225 26.1
2020-Oct-30 02:01 225 26.1
2020-Oct-30 01:56 225 26.1
2020-Oct-30 01:51 225 26.1
2020-Oct-30 01:46 225 26.1
2020-Oct-30 01:41 248 26.1
2020-Oct-30 01:36 203 26.1
2020-Oct-30 01:31 248 26.7
2020-Oct-30 01:26 023 26.7
2020-Oct-30 01:21 270 26.7
2020-Oct-30 01:16 270 26.7
2020-Oct-30 01:11 248 4 26.7
2020-Oct-30 01:06 158 1 26.7
2020-Oct-30 01:01 270 4 27.2
2020-Oct-30 00:56 180 3 27.2
2020-Oct-30 00:51 203 2 27.8
2020-Oct-30 00:46 270 1 27.8
2020-Oct-30 00:41 270 27.8
2020-Oct-30 00:36 180 27.8
2020-Oct-30 00:31 113 27.8
2020-Oct-30 00:28 203 1 27.2
2020-Oct-30 00:21 180 2 27.2
2020-Oct-30 00:16 248 1 27.2
2020-Oct-30 00:11 270 27.2
2020-Oct-30 00:06 27.2
2020-Oct-30 00:01 090 27.2
2020-Oct-29 23:56 203 27.2
2020-Oct-29 23:51 270 27.2
2020-Oct-29 23:46 225 27.2
2020-Oct-29 23:41 270 27.2
2020-Oct-29 23:36 270 1 27.8
2020-Oct-29 23:31 158 27.8
2020-Oct-29 23:26 270 27.8
2020-Oct-29 23:21 158 27.8
2020-Oct-29 23:16 248 27.8
2020-Oct-29 23:11 270 27.8
2020-Oct-29 23:06 270 27.8
2020-Oct-29 23:01 338 27.8
2020-Oct-29 22:56 045 28.3
2020-Oct-29 22:51 045 0 28.3
2020-Oct-29 22:46 225 28.3
2020-Oct-29 22:41 068 28.3
2020-Oct-29 22:36 315 28.3
2020-Oct-29 22:31 270 28.9
2020-Oct-29 22:26 158 1 28.9
2020-Oct-29 22:21 180 0 28.9
2020-Oct-29 22:16 113 2 28.9
2020-Oct-29 22:11 293 28.9
2020-Oct-29 22:06 338 2 28.9
2020-Oct-29 22:01 023 0 28.9
2020-Oct-29 21:56 045 2 29.4
2020-Oct-29 21:51 135 1 29.4
2020-Oct-29 21:46 338 2 29.4
2020-Oct-29 21:41 248 5 29.4
2020-Oct-29 21:36 045 1 30.0
2020-Oct-29 21:31 090 2 30.0
2020-Oct-29 21:26 315 1 30.0
2020-Oct-29 21:21 113 4 30.6
2020-Oct-29 21:16 023 4 30.6
2020-Oct-29 21:11 023 4 31.1
2020-Oct-29 21:06 090 2 31.1
2020-Oct-29 21:02 068 1 31.1
2020-Oct-29 20:56 158 1 31.1
2020-Oct-29 20:51 203 0 31.7
2020-Oct-29 20:46 068 4 31.1
2020-Oct-29 20:41 068 3 31.1
2020-Oct-29 20:36 31.1
2020-Oct-29 20:31 045 2 31.7
2020-Oct-29 20:26 225 2 30.6
2020-Oct-29 20:21 180 0 31.1
2020-Oct-29 20:16 090 2 31.1
2020-Oct-29 20:11 090 31.1
2020-Oct-29 20:06 293 1 31.1
2020-Oct-29 20:01 270 31.7
2020-Oct-29 19:56 045 0 31.7
2020-Oct-29 19:51 068 31.7
2020-Oct-29 19:46 068 3 31.7
2020-Oct-29 19:41 068 3 31.7
2020-Oct-29 19:36 158 5 32.2
2020-Oct-29 19:31 248 1 31.1
2020-Oct-29 19:26 270 31.1
2020-Oct-29 19:21 248 2 31.7
2020-Oct-29 19:16 023 1 31.7
2020-Oct-29 19:11 31.7
2020-Oct-29 19:06 180 1 31.7
2020-Oct-29 19:01 023 1 31.7
2020-Oct-29 18:56 203 1 31.7
2020-Oct-29 18:52 315 31.7
2020-Oct-29 18:46 203 2 31.7
2020-Oct-29 18:41 113 1 31.7
2020-Oct-29 18:36 113 1 31.7
2020-Oct-29 18:31 270 31.7
2020-Oct-29 18:26 293 2 31.7
2020-Oct-29 18:21 180 1 32.2
2020-Oct-29 18:16 315 1 32.2
2020-Oct-29 18:11 248 1 31.7
2020-Oct-29 18:06 31.7
2020-Oct-29 18:01 045 2 32.8
2020-Oct-29 17:56 113 0 32.2
2020-Oct-29 17:51 113 3 32.2
2020-Oct-29 17:46 225 2 32.2
2020-Oct-29 17:41 203 1 33.3
2020-Oct-29 17:36 180 3 32.8
2020-Oct-29 17:31 135 1 33.3
2020-Oct-29 17:26 158 3 33.3
2020-Oct-29 17:21 180 32.8
2020-Oct-29 17:16 338 0 32.8
2020-Oct-29 17:11 068 2 33.3
2020-Oct-29 17:06 270 33.3
2020-Oct-29 17:01 270 1 33.3
2020-Oct-29 16:56 023 0 32.2
2020-Oct-29 16:51 225 3 32.8
2020-Oct-29 16:46 090 1 32.8
2020-Oct-29 16:41 180 32.2
2020-Oct-29 16:36 068 3 31.7
2020-Oct-29 16:32 270 3 32.2
2020-Oct-29 16:26 113 0 32.8
2020-Oct-29 16:21 023 1 32.2
2020-Oct-29 16:16 090 0 32.2
2020-Oct-29 16:12 270 1 31.7
2020-Oct-29 16:06 158 4 32.2
2020-Oct-29 16:01 158 1 31.7
2020-Oct-29 15:56 248 1 31.7
2020-Oct-29 15:51 045 5 31.7
2020-Oct-29 15:46 225 0 32.2
2020-Oct-29 15:41 270 1 31.1
2020-Oct-29 15:36 203 30.6
2020-Oct-29 15:31 293 1 31.1
2020-Oct-29 15:26 135 2 31.1
2020-Oct-29 15:21 180 2 31.1
2020-Oct-29 15:16 293 1 31.7
2020-Oct-29 15:11 338 5 32.2
2020-Oct-29 15:06 068 5 32.2
2020-Oct-29 15:01 225 3 31.1
2020-Oct-29 14:56 158 0 31.1
2020-Oct-29 14:51 293 1 30.6
2020-Oct-29 14:46 293 1 30.6
2020-Oct-29 14:41 225 1 31.1
2020-Oct-29 14:36 180 2 31.7
2020-Oct-29 14:31 248 2 31.1
2020-Oct-29 14:27 023 3 30.6
2020-Oct-29 14:21 158 2 31.7
2020-Oct-29 14:16 338 3 31.1
2020-Oct-29 14:11 090 4 30.6
2020-Oct-29 14:06 135 2 30.0
2020-Oct-29 14:01 203 30.6
2020-Oct-29 13:56 023 3 29.4
2020-Oct-29 13:51 203 0 30.0
2020-Oct-29 13:46 113 31.1
2020-Oct-29 13:41 270 30.6
2020-Oct-29 13:36 090 30.6
2020-Oct-29 13:31 113 30.0
2020-Oct-29 13:26 113 0 30.0
2020-Oct-29 13:21 270 30.0
2020-Oct-29 13:16 113 29.4
2020-Oct-29 13:11 248 29.4
2020-Oct-29 13:06 338 28.9
2020-Oct-29 13:01 045 28.3
2020-Oct-29 12:56 113 27.8
2020-Oct-29 12:51 045 27.8
2020-Oct-29 12:46 045 27.8
2020-Oct-29 12:41 248 27.2
2020-Oct-29 12:36 225 26.7
2020-Oct-29 12:31 203 26.1
2020-Oct-29 12:26 180 26.1
2020-Oct-29 12:21 113 26.1
2020-Oct-29 12:16 135 26.1
2020-Oct-29 12:11 090 26.1
2020-Oct-29 12:06 113 25.6
2020-Oct-29 12:01 270 25.6
2020-Oct-29 11:56 225 25.6
2020-Oct-29 11:51 068 25.6
2020-Oct-29 11:46 270 25.6
2020-Oct-29 11:41 180 25.6
2020-Oct-29 11:36 270 25.6
2020-Oct-29 11:31 135 25.6
2020-Oct-29 11:26 158 25.6
2020-Oct-29 11:21 113 25.6
2020-Oct-29 11:16 135 25.6
2020-Oct-29 11:11 270 25.6
2020-Oct-29 11:06 293 25.6
2020-Oct-29 11:01 090 25.6
2020-Oct-29 10:56 113 25.6
2020-Oct-29 10:52 113 25.6
2020-Oct-29 10:46 248 25.6
2020-Oct-29 10:41 248 26.1
2020-Oct-29 10:36 090 26.1
2020-Oct-29 10:31 045 26.1
2020-Oct-29 10:26 135 26.1
2020-Oct-29 10:21 225 26.1
2020-Oct-29 10:16 023 26.1
2020-Oct-29 10:11 090 26.1
2020-Oct-29 10:06 113 26.1
2020-Oct-29 10:01 090 26.1
2020-Oct-29 09:56 045 26.1
2020-Oct-29 09:51 203 26.1
2020-Oct-29 09:46 315 26.1
2020-Oct-29 09:41 045 26.1
2020-Oct-29 09:36 270 26.1
2020-Oct-29 09:31 180 26.1
2020-Oct-29 09:26 158 26.1
2020-Oct-29 09:21 135 26.1
2020-Oct-29 09:16 113 26.1
2020-Oct-29 09:11 068 26.1
2020-Oct-29 09:06 023 26.1
2020-Oct-29 09:01 045 26.1
2020-Oct-29 08:56 068 26.1
2020-Oct-29 08:52 225 26.1
2020-Oct-29 08:46 113 26.1
2020-Oct-29 08:41 158 26.1
2020-Oct-29 08:36 113 26.1
2020-Oct-29 08:31 045 26.1
2020-Oct-29 08:26 045 26.1
2020-Oct-29 08:21 045 26.1
2020-Oct-29 08:16 090 26.1
2020-Oct-29 08:11 135 26.1
2020-Oct-29 08:06 068 26.1
2020-Oct-29 08:01 045 26.1
2020-Oct-29 07:56 158 26.7
2020-Oct-29 07:51 023 26.7
2020-Oct-29 07:46 113 1 26.7
2020-Oct-29 07:42 090 26.7
2020-Oct-29 07:36 135 26.7
2020-Oct-29 07:31 113 26.7
2020-Oct-29 07:26 068 1 26.7
2020-Oct-29 07:21 270 0 26.7
2020-Oct-29 07:16 113 1 26.7
2020-Oct-29 07:11 180 1 26.7
2020-Oct-29 07:06 113 26.7
2020-Oct-29 07:01 135 3 26.7
2020-Oct-29 06:56 293 26.7
2020-Oct-29 06:51 113 2 26.7
2020-Oct-29 06:46 090 1 26.7
2020-Oct-29 06:41 068 26.7
2020-Oct-29 06:39 113 2 26.7
2020-Oct-29 06:31 090 26.7
2020-Oct-29 06:26 113 1 26.7
2020-Oct-29 06:22 180 0 26.7
2020-Oct-29 06:16 203 0 26.7
2020-Oct-29 06:11 068 26.7
2020-Oct-29 06:06 045 26.7
2020-Oct-29 06:01 068 26.7
2020-Oct-29 05:56 068 3 26.7
2020-Oct-29 05:51 158 1 26.7
2020-Oct-29 05:46 113 0 26.7
2020-Oct-29 05:41 26.7
2020-Oct-29 05:36 113 1 26.7
2020-Oct-29 05:31 113 2 26.7
2020-Oct-29 05:26 203 26.7
2020-Oct-29 05:21 225 26.7
2020-Oct-29 05:16 045 26.7
2020-Oct-29 05:11 023 26.7
2020-Oct-29 05:06 045 26.7
2020-Oct-29 05:01 068 27.2
2020-Oct-29 04:56 045 2 27.2
2020-Oct-29 04:51 135 0 27.2
2020-Oct-29 04:46 135 2 27.2
2020-Oct-29 04:41 090 1 27.2
2020-Oct-29 04:36 270 3 27.2
2020-Oct-29 04:31 068 0 27.2
2020-Oct-29 04:26 068 27.2
2020-Oct-29 04:21 158 1 27.2
2020-Oct-29 04:16 023 1 27.2
2020-Oct-29 04:11 113 2 27.2
2020-Oct-29 04:06 090 1 27.2
2020-Oct-29 04:01 113 1 27.2
2020-Oct-29 03:56 135 1 27.2
2020-Oct-29 03:51 135 3 27.2
2020-Oct-29 03:46 113 0 27.2
2020-Oct-29 03:41 158 27.2
2020-Oct-29 03:36 135 0 27.2
2020-Oct-29 03:31 113 27.2
2020-Oct-29 03:26 045 1 27.2
2020-Oct-29 03:21 023 1 27.2
2020-Oct-29 03:16 158 27.2
2020-Oct-29 03:11 180 0 27.2
2020-Oct-29 03:06 113 1 27.2
2020-Oct-29 03:01 113 0 27.2
2020-Oct-29 02:56 045 27.2
2020-Oct-29 02:51 113 0 27.2
2020-Oct-29 02:46 158 1 27.2
2020-Oct-29 02:41 023 27.2
2020-Oct-29 02:36 180 1 27.2
2020-Oct-29 02:31 113 27.2
2020-Oct-29 02:26 113 2 27.2
2020-Oct-29 02:21 113 27.2
2020-Oct-29 02:16 113 27.2
2020-Oct-29 02:11 338 0 27.2
2020-Oct-29 02:06 135 1 27.2
2020-Oct-29 02:01 068 27.2
2020-Oct-29 01:56 090 1 27.2
2020-Oct-29 01:51 023 27.2
2020-Oct-29 01:46 203 26.7
2020-Oct-29 01:41 045 27.2
2020-Oct-29 01:36 135 27.2
2020-Oct-29 01:32 180 0 26.7
2020-Oct-29 01:26 158 27.2
2020-Oct-29 01:21 090 27.2
2020-Oct-29 01:16 068 27.2
2020-Oct-29 01:11 203 27.2
2020-Oct-29 01:06 113 27.2
2020-Oct-29 01:01 135 27.2
2020-Oct-29 00:56 135 27.2
2020-Oct-29 00:51 180 27.2
2020-Oct-29 00:46 023 27.2
2020-Oct-29 00:41 090 27.2
2020-Oct-29 00:36 090 27.2
2020-Oct-29 00:33 338 27.2
2020-Oct-29 00:26 135 27.2
2020-Oct-29 00:21 113 3 27.2
2020-Oct-29 00:16 158 0 27.2
2020-Oct-29 00:11 068 2 27.2
2020-Oct-29 00:06 315 0 27.2
2020-Oct-29 00:01 180 27.2
2020-Oct-28 23:56 068 0 27.2
2020-Oct-28 23:51 158 27.2
2020-Oct-28 23:46 225 27.2
2020-Oct-28 23:41 135 2 27.2
2020-Oct-28 23:36 113 1 27.2
2020-Oct-28 23:31 158 27.2
2020-Oct-28 23:26 045 27.8
2020-Oct-28 23:21 113 27.8
2020-Oct-28 23:16 158 27.8
2020-Oct-28 23:11 090 27.8
2020-Oct-28 23:06 113 1 27.8
2020-Oct-28 23:01 113 27.8